Weather Roundup
Issued by NWS Chicago, IL

Home | Current Version | Previous Version | Graphics & Text | Print | Product List | Glossary On
Versions: 1 2 3 4 5 6 7 8 9 10 11 12 13 14 15 16 17 18 19 20 21 22 23 24 25 26 27 28 29 30 31 32 33 34 35 36 37 38 39 40 41 42 43 44 45 46 47 48 49 50
000
NZUS59 KLOT 161106
HRRLOT

CHICAGO AREA WEATHER ROUNDUP
NATIONAL WEATHER SERVICE CHICAGO/ROMEOVILLE IL
600 AM CDT TUE SEP 16 2014

NOTE: "FAIR" INDICATES FEW OR NO CLOUDS BELOW 12,000 FEET WITH NO
SIGNIFICANT WEATHER AND/OR OBSTRUCTIONS TO VISIBILITY.

* THESE STATIONS ARE NOT UNDER NWS QUALITY CONTROL. THEY ALSO MAY NOT
  REPORT WEATHER SUCH AS PRECIPITATION OR FOG.

ILZ005-006-012>014-019>023-161200-
NORTHEAST ILLINOIS

CITY           SKY/WX    TMP DP  RH WIND       PRES   REMARKS
OHARE          PTCLDY    46  43  89 NW3       30.19S
MIDWAY         PTCLDY    48  46  93 N3        30.19S
AURORA         CLEAR     40  38  93 NW5       30.20S
LANSING*       CLEAR     48  47  95 CALM      30.19S
JOLIET*        CLEAR     42  41  93 CALM      30.21S FOG
WAUKEGAN       CLEAR     44  42  93 NW5       30.19R
DUPAGE AIRPORT CLEAR     41  39  93 N3        30.19S
WHEELING       CLEAR     45  42  89 CALM      30.21R
KANKAKEE*      CLEAR     47  46  97 NW3       30.20S
MORRIS*        CLEAR     42  42 100 NW3       30.20S FOG
LEWIS AIRPORT* CLEAR     44  44 100 N3        30.19S FOG
NORTHERLY IS     N/A     51  46  83 W5          N/A
$$

WIZ051-052-058>065-066-070>072-161200-
SOUTHEAST WISCONSIN

CITY           SKY/WX    TMP DP  RH WIND       PRES   REMARKS
MILWAUKEE      CLEAR     45  41  86 NW6       30.19S
KENOSHA*       CLEAR     42  41  96 NW5       30.20R
RACINE*        CLEAR     44  41  89 NW7       30.21R
BURLINGTON     CLEAR     36  36  99 CALM      30.20R
WEST BEND      CLEAR     41  37  87 W3        30.19S
$$

INZ001>003-010>013-019-020-161200-
NORTHWEST INDIANA

CITY           SKY/WX    TMP DP  RH WIND       PRES   REMARKS
GARY*          PTCLDY    50  46  87 W5        30.19R
MICHIGAN CITY* NOT AVBL
RENSSELAER*    NOT AVBL
VALPARAISO     CLOUDY    53  51  93 CALM      30.19R
$$

LMZ740>746-161200-
SOUTHERN LAKE MICHIGAN

STATION/POSITION TIME  SKY/WX   TEMP WIND        PRES    VSBY
                                AIR  DIR/SP/G
                 (UTC)          (F)  (DEG/KT/KT) (MB)    (MI)
HARRISON CRIB    1100            51  300/  9/ 11   N/A
BURNHAM HARBOR   1100            51  270/  5/  7   N/A
CALUMET HARBOR   1000            49  280/  4/  6   N/A
BURNS HARBOR     NOT AVBL
MICHIGAN CITY    1100            53   80/  5/  7   N/A
$$

ABBREVIATIONS USED IN REMARKS
   TC - TEMPERATURE IN CELSIUS
  WCI - WIND CHILL INDEX
   HX - HEAT INDEX
  VSB - VISIBILITY
$$


USA.gov is the U.S. government's official web portal to all federal, state and local government web resources and services.